Meteo Giornale » Osservazioni meteo Italia » Messina

ore: 12:55 - Osservazioni Meteo Messina
Lat. 38° 12' N Lon. 15° 33' E Alt. 59 metri s.l.m.

poco_nuvoloso Europe/Rome

23 °C

Poco Nuvoloso

Temp. 24 Ore

21 °C

23 °C

Sud-Ovest

29.6 Km/h

Dew point 17 °C

Umidità 68 %

Visibilità  10 Km

Il sole sorge alle ore 07:08

Il sole tramonta alle ore 18:17

Data e Ora Cielo e Fenomeni T °C DP °C Um. % Pres. hPa Vis. km Vento km/h
Oggi h: 12:55 poco_nuvoloso Poco Nuvoloso 23 17 68 1010 10 SO 29.6
Oggi h: 11:55 poco_nuvoloso Poco Nuvoloso 23 16 64 1011 10 SO 35.2
Oggi h: 10:55 poco_nuvoloso Poco Nuvoloso 23 16 64 1011 10 SO 33.3
Oggi h: 09:55 poco_nuvoloso Poco Nuvoloso 23 16 64 1011 10 SO 33.3
Oggi h: 08:55 nuvoloso Nuvoloso 22 17 73 1011 10 SO 27.8
Oggi h: 07:55 nuvoloso Nuvoloso 21 18 82 1010 10 SO 29.6
Oggi h: 06:55 nuvoloso Nuvoloso 21 18 82 1010 10 SO 20.3
Oggi h: 05:55 nuvoloso Nuvoloso 21 18 82 1011 10 SO 22.2
Oggi h: 04:55 nuvoloso Nuvoloso 22 17 73 1011 10 SO 24
Oggi h: 03:55 nuvoloso Nuvoloso 21 17 77 1011 10 SO 22.2
Oggi h: 02:55 poco_nuvoloso Poco Nuvoloso 21 18 82 1012 10 SO 22.2
Oggi h: 01:55 poco_nuvoloso Poco Nuvoloso 21 19 88 1012 10 SO 22.2
Oggi h: 00:55 poco_nuvoloso Poco Nuvoloso 21 19 88 1013 10 SO 20.3
Ieri h: 23:55 poco_nuvoloso Poco Nuvoloso 21 19 88 1013 10 SO 22.2
Ieri h: 22:55 poco_nuvoloso Poco Nuvoloso 22 19 83 1013 10 SO 22.2
Ieri h: 21:55 poco_nuvoloso Poco Nuvoloso 22 18 78 1013 10 SO 22.2
Ieri h: 20:55 poco_nuvoloso Poco Nuvoloso 22 19 83 1013 10 SO 18.5
Ieri h: 19:55 poco_nuvoloso Poco Nuvoloso 22 19 83 1013 10 SO 16.7
Ieri h: 18:55 poco_nuvoloso Poco Nuvoloso 22 19 83 1013 10 SO 18.5
Ieri h: 16:55 poco_nuvoloso Poco Nuvoloso 23 19 78 1013 10 SO 24